Regional Weather Roundup
Issued by NWS

Home | Current Version | Previous Version | Graphics & Text | Print | Product List | Glossary On
Versions: 1 2 3 4 5 6 7 8 9 10 11 12 13 14 15 16 17 18 19 20 21 22 23 24 25 26 27 28 29 30 31 32 33 34 35 36 37 38 39 40 41 42 43 44 45 46 47 48 49 50
081
ASUS44 KJAN 251610
RWRMS

MISSISSIPPI HOURLY WEATHER ROUNDUP
NATIONAL WEATHER SERVICE JACKSON MS
1100 AM CDT SAT OCT 25 2014

NOTE: "FAIR: INDICATES FEW OR NO CLOUDS BELOW 12,000 FEET WITH NO
SIGNIFICANT WEATHER AND/OR OBSTRUCTIONS TO VISIBILITY.

MSZ001>002-007>008-010>013-018>021-025>028-034>036-251700-
NORTHWEST MISSISSIPPI

CITY           SKY/WX    TMP DP  RH WIND       PRES   REMARKS
CLARKSDALE     FAIR      73  59  60 W13       30.13S
CLEVELAND      FAIR      73  60  65 W9        30.13F
GREENWOOD      SUNNY     69  57  65 W6        30.15F
GREENVILLE     SUNNY     73  57  57 W10       30.14F
GRENADA          N/A    N/A N/A N/A MISG        N/A
OLIVE BRANCH   SUNNY     70  64  83 SW7       30.11S
OXFORD         FAIR      70  57  64 W7        30.14S
TUNICA         SUNNY     72  59  64 W9        30.12S
$$

MSZ003>006-009-014>017-022>024-029>033-037>039-251700-
NORTHEAST MISSISSIPPI

CITY           SKY/WX    TMP DP  RH WIND       PRES   REMARKS
COLUMBUS AFB   PTSUNNY   68  56  65 W2        30.14F
CORINTH        FAIR      72  59  64 VRB6      30.10F
GOLDN TRIANGLE SUNNY     72  57  60 N7        30.15R
STARKVILLE     FAIR      72  57  60 NW6       30.15R
TUPELO         SUNNY     72  58  61 VRB6      30.12F
$$

MSZ040-058-251700-
CENTRAL MISSISSIPPI

CITY           SKY/WX    TMP DP  RH WIND       PRES   REMARKS
JACKSON INTL   SUNNY     72  55  55 NW3       30.17S
JACKSON HAWKNS SUNNY     71  56  58 NW6       30.18S
MERIDIAN KEY   SUNNY     71  54  54 N8        30.15F
MERIDIAN NAS   SUNNY     70  54  56 VRB3      30.16S
RAYMOND        FAIR      72  66  83 NW3       30.18S
VICKSBURG      SUNNY     71  56  58 VRB3      30.19R
$$

MSZ059>079-251700-
SOUTH MISSISSIPPI

CITY           SKY/WX    TMP DP  RH WIND       PRES   REMARKS
BROOKHAVEN     FAIR      70  54  56 N5        30.19F
COLUMBIA         N/A    N/A N/A N/A MISG        N/A
HATTIESBURG    SUNNY     70  55  59 VRB3      30.17F
MCCOMB         SUNNY     71  51  49 NE5       30.17F
NATCHEZ        SUNNY     70  54  56 N5        30.19S
PINE BELT      SUNNY     72  54  53 NE6       30.18S
$$

MSZ080>082-251700-
COASTAL MISSISSIPPI

CITY           SKY/WX    TMP DP  RH WIND       PRES   REMARKS
BAY ST LOUIS   SUNNY     72  50  46 N7        30.16S
BILOXI         SUNNY     72  52  49 NE9       30.15S
PASCAGOULA     SUNNY     72  52  49 N10       30.15S
GULFPORT       SUNNY     73  53  49 NE7       30.15S
$$



USA.gov is the U.S. government's official web portal to all federal, state and local government web resources and services.